Location: Chuathbaluk
(61.5726°N, 159.2454°W)
Time: 04:16:16
(UTC+00:00)

Transit 2A - Pass Details

Date: 02 December 2020
Orbit: 599 x 960 km, 66.7° (Epoch: 26 January)

Event Time Altitude Azimuth Distance (km) Brightness Sun altitude
Rises 10:40:05 0° 306° (NW) 3,422 - -50.4°
Reaches altitude 10° 10:42:41 10° 304° (NW) 2,428 - -50.4°
Maximum altitude 10:48:11 67° 224° (SW) 825 - -50.3°
Drops below altitude 10° 10:53:06 10° 142° (SE) 2,176 - -50.2°
Sets 10:55:20 0° 140° (SE) 3,040 - -50.2°
